EW3692 Weather Reports


time (UTC)temp
C
wind
direction
speed
KPH
gust
KPH
rain 1hr
cm
rain 24hr
cm
rain mn
cm
humidity
%
barometer
mb
20260505221538 18 179 11.3 24.1 0.00 0.00 0.00 56 1013.9
20260505220042 20 148 6.4 17.7 0.00 0.00 0.00 55 1013.8
20260505214537 20 180 6.4 12.9 0.00 0.00 0.00 56 1013.7
20260505213043 20 149 3.2 16.1 0.00 0.00 0.00 57 1013.7
20260505211542 20 178 3.2 14.5 0.00 0.00 0.00 59 1013.6
20260505210034 20 166 1.6 11.3 0.00 0.00 0.00 57 1013.5
20260505204535 20 113 1.6 14.5 0.00 0.00 0.00 58 1013.6
20260505203037 21 158 3.2 12.9 0.00 0.00 0.00 57 1014.0
20260505201534 20 184 0.0 14.5 0.00 0.00 0.00 57 1013.9
20260505200029 20 178 4.8 12.9 0.00 0.00 0.00 59 1014.1
20260505194528 20 9 3.2 11.3 0.00 0.00 0.00 55 1014.3
20260505193028 20 30 4.8 12.9 0.00 0.00 0.00 56 1014.3
20260505191526 20 173 3.2 11.3 0.00 0.00 0.00 58 1014.7
20260505190035 20 171 3.2 12.9 0.00 0.00 0.00 58 1015.0
20260505184527 20 300 3.2 12.9 0.00 0.00 0.00 60 1015.4
20260505183022 20 186 4.8 12.9 0.00 0.00 0.00 56 1015.4
20260505181519 20 200 6.4 14.5 0.00 0.00 0.00 57 1015.6
20260505180020 20 149 4.8 14.5 0.00 0.00 0.00 58 1015.6
20260505174513 20 121 1.6 17.7 0.00 0.00 0.00 59 1015.6
20260505173012 19 154 4.8 11.3 0.00 0.00 0.00 58 1016.0
20260505171511 19 159 0.0 14.5 0.00 0.00 0.00 58 1016.4
20260505170010 19 174 3.2 12.9 0.00 0.00 0.00 58 1016.5
20260505164509 18 167 3.2 16.1 0.00 0.00 0.00 60 1016.7
20260505163010 18 118 3.2 14.5 0.00 0.00 0.00 57 1016.5
20260505161507 18 178 3.2 11.3 0.00 0.00 0.00 63 1016.4
20260505153002 17 175 3.2 12.9 0.00 0.00 0.00 61 1016.7
20260505151604 16 169 6.4 19.3 0.00 0.00 0.00 60 1016.7
20260505124538 13 15 0.0 0.0 0.00 0.00 0.00 71 1016.4
20260505123047 12 15 0.0 0.0 0.00 0.00 0.00 74 1016.4
20260505121534 10 15 0.0 0.0 0.00 0.00 0.00 77 1016.4
20260505120043 8 15 0.0 0.0 0.00 0.00 0.00 82 1016.3
20260505114532 8 15 0.0 0.0 0.00 0.00 0.00 82 1016.1
20260505113031 7 15 0.0 0.0 0.00 0.00 0.00 80 1016.2
20260505111533 7 15 0.0 0.0 0.00 0.00 0.00 80 1015.9
20260505101530 7 15 0.0 0.0 0.00 0.00 0.00 81 1015.8
20260505100030 7 15 0.0 0.0 0.00 0.00 0.00 81 1015.7
20260505094523 8 15 0.0 3.2 0.00 0.00 0.00 80 1015.9
20260505093020 8 15 0.0 0.0 0.00 0.00 0.00 79 1015.8
20260505091520 8 15 0.0 0.0 0.00 0.00 0.00 78 1016.0
20260505090016 9 15 0.0 3.2 0.00 0.00 0.00 77 1016.0
20260505084515 10 15 0.0 0.0 0.00 0.00 0.00 76 1015.8
20260505083021 10 15 0.0 0.0 0.00 0.00 0.00 75 1015.8
20260505081515 10 15 0.0 0.0 0.00 0.00 0.00 78 1016.0
20260505080023 9 15 0.0 0.0 0.00 0.00 0.00 78 1015.9
20260505074511 9 15 0.0 0.0 0.00 0.00 0.00 79 1016.0
20260505073022 10 15 0.0 0.0 0.00 0.00 0.00 78 1015.9
20260505071507 10 15 0.0 0.0 0.00 0.00 0.00 78 1016.0
20260505070006 10 15 0.0 0.0 0.00 0.00 0.00 77 1016.0
20260505064505 11 15 0.0 0.0 0.00 0.00 0.00 77 1015.9
20260505063004 11 15 0.0 4.8 0.00 0.00 0.00 77 1016.0
20260505061503 10 13 0.0 1.6 0.00 0.00 0.00 77 1016.0
20260505060001 10 65 0.0 4.8 0.00 0.00 0.00 78 1016.2
20260505054606 11 64 0.0 0.0 0.00 0.00 0.00 77 1016.3
20260505053059 11 64 0.0 0.0 0.00 0.00 0.00 75 1016.4
20260505051557 11 65 0.0 1.6 0.00 0.00 0.00 75 1016.4
20260505041600 11 82 0.0 0.0 0.00 0.00 0.00 79 1016.5
20260505040050 11 82 0.0 0.0 0.00 0.00 0.00 79 1016.5
20260505034549 11 82 0.0 3.2 0.00 0.00 0.00 79 1016.5
20260505033049 12 82 0.0 6.4 0.00 0.00 0.00 77 1016.7
20260505031548 12 157 0.0 4.8 0.00 0.00 0.00 76 1016.7
20260505030105 12 157 0.0 9.7 0.00 0.00 0.00 76 1016.9
20260505024550 11 90 0.0 0.0 0.00 0.00 0.00 78 1016.9
20260505023046 12 90 0.0 0.0 0.00 0.00 0.00 78 1016.9
20260505021547 12 90 0.0 0.0 0.00 0.00 0.00 77 1016.9
20260505020047 12 90 0.0 0.0 0.00 0.00 0.00 76 1016.9
20260505014603 13 90 0.0 0.0 0.00 0.00 0.00 76 1016.8
20260505013051 13 90 0.0 0.0 0.00 0.00 0.00 76 1016.6
20260505011546 14 188 0.0 0.0 0.00 0.00 0.00 74 1016.5
20260505010053 15 188 0.0 1.6 0.00 0.00 0.00 75 1016.3
20260505004549 15 188 1.6 8.0 0.00 0.00 0.00 73 1016.2
20260505003054 16 130 0.0 0.0 0.00 0.00 0.00 73 1016.2
20260505001545 16 130 0.0 4.8 0.00 0.00 0.00 72 1016.0
20260505000041 17 130 3.2 8.0 0.00 0.00 0.00 69 1016.0
20260504234543 17 187 0.0 8.0 0.00 0.00 0.00 69 1015.8
20260504233042 17 194 0.0 3.2 0.00 0.00 0.00 70 1015.7
20260504231540 17 117 1.6 6.4 0.00 0.00 0.00 68 1015.8
20260504230040 18 170 3.2 9.7 0.00 0.00 0.00 66 1015.6
20260504224538 18 153 1.6 6.4 0.00 0.00 0.00 64 1015.7
20260504223055 18 116 1.6 8.0 0.00 0.00 0.00 63 1015.8